Time,TemperatureF,DewpointF,PressureIn,WindDirection,WindDirectionDegrees,WindSpeedMPH,WindSpeedGustMPH,Humidity,HourlyPrecipIn,Conditions,Clouds,dailyrainin,SoftwareType,DateUTC
2013-06-14 00:00:00,53.4,53.6,29.62,North,0,0.0,0.0,100,-99.99,,,-99.99,PWS SA v1.10,2013-06-14 04:00:00,
2013-06-14 00:02:00,53.4,53.6,29.62,North,0,0.0,0.0,100,-99.99,,,-99.99,PWS SA v1.10,2013-06-14 04:02:00,
2013-06-14 00:04:00,53.4,53.5,29.62,North,0,0.0,0.0,100,-99.99,,,-99.99,PWS SA v1.10,2013-06-14 04:04:00,
2013-06-14 00:08:00,53.4,53.7,29.62,NNE,18,1.7,1.7,100,-99.99,,,-99.99,PWS SA v1.10,2013-06-14 04:08:00,
2013-06-14 00:12:00,53.4,53.5,29.62,NE,47,1.7,1.7,100,-99.99,,,-99.99,PWS SA v1.10,2013-06-14 04:12:00,
2013-06-14 00:18:00,53.4,53.5,29.63,North,0,0.0,1.0,100,-99.99,,,-99.99,PWS SA v1.10,2013-06-14 04:18:00,
2013-06-14 00:24:00,53.5,54.0,29.62,North,0,0.0,1.0,100,-99.99,,,-99.99,PWS SA v1.10,2013-06-14 04:24:00,
2013-06-14 00:28:00,53.6,53.8,29.62,North,0,0.0,1.0,100,-99.99,,,-99.99,PWS SA v1.10,2013-06-14 04:28:00,
2013-06-14 00:34:00,53.6,53.9,29.62,North,0,0.0,1.0,100,-99.99,,,-99.99,PWS SA v1.10,2013-06-14 04:34:00,
2013-06-14 00:40:00,53.7,53.8,29.61,NE,48,3.4,3.4,100,-99.99,,,-99.99,PWS SA v1.10,2013-06-14 04:40:00,
2013-06-14 00:46:00,53.4,53.5,29.61,North,0,0.0,6.0,100,-99.99,,,-99.99,PWS SA v1.10,2013-06-14 04:46:00,
2013-06-14 00:52:00,53.4,53.7,29.62,North,0,0.0,6.0,100,-99.99,,,-99.99,PWS SA v1.10,2013-06-14 04:52:00,
2013-06-14 00:58:00,53.4,53.6,29.62,North,0,0.0,3.0,100,-99.99,,,-99.99,PWS SA v1.10,2013-06-14 04:58:00,
2013-06-14 01:04:00,53.4,53.5,29.61,ENE,58,1.7,3.0,100,-99.99,,,-99.99,PWS SA v1.10,2013-06-14 05:04:00,
2013-06-14 01:10:00,53.4,53.5,29.61,NE,52,1.7,3.0,100,-99.99,,,-99.99,PWS SA v1.10,2013-06-14 05:10:00,
2013-06-14 01:16:00,53.4,53.5,29.61,NE,52,1.7,1.7,100,-99.99,,,-99.99,PWS SA v1.10,2013-06-14 05:16:00,
2013-06-14 01:22:00,53.2,53.3,29.61,ENE,62,1.7,1.7,100,-99.99,,,-99.99,PWS SA v1.10,2013-06-14 05:22:00,
2013-06-14 01:28:00,53.2,53.3,29.61,NE,34,1.7,1.7,100,-99.99,,,-99.99,PWS SA v1.10,2013-06-14 05:28:00,
2013-06-14 01:34:00,53.2,53.5,29.60,NE,47,1.7,3.0,100,-99.99,,,-99.99,PWS SA v1.10,2013-06-14 05:34:00,
2013-06-14 01:40:00,52.9,53.3,29.60,North,0,0.0,10.0,100,-99.99,,,-99.99,PWS SA v1.10,2013-06-14 05:40:00,
2013-06-14 01:46:00,52.6,52.9,29.61,ENE,68,3.4,10.0,100,-99.99,,,-99.99,PWS SA v1.10,2013-06-14 05:46:00,
2013-06-14 01:52:00,52.5,52.8,29.60,North,0,0.0,10.0,100,-99.99,,,-99.99,PWS SA v1.10,2013-06-14 05:52:00,
2013-06-14 01:58:00,52.4,52.4,29.60,North,0,0.0,6.0,100,-99.99,,,-99.99,PWS SA v1.10,2013-06-14 05:58:00,
2013-06-14 02:04:00,52.3,52.4,29.59,North,0,0.0,5.0,100,-99.99,,,-99.99,PWS SA v1.10,2013-06-14 06:04:00,
2013-06-14 02:10:00,52.4,52.7,29.60,North,0,0.0,5.0,100,-99.99,,,-99.99,PWS SA v1.10,2013-06-14 06:10:00,
2013-06-14 02:16:00,52.5,52.6,29.60,NNE,21,1.7,5.0,100,-99.99,,,-99.99,PWS SA v1.10,2013-06-14 06:16:00,
2013-06-14 02:22:00,52.5,53.0,29.60,North,0,0.0,1.0,100,-99.99,,,-99.99,PWS SA v1.10,2013-06-14 06:22:00,
2013-06-14 02:28:00,52.6,52.7,29.59,NE,48,1.7,1.7,100,-99.99,,,-99.99,PWS SA v1.10,2013-06-14 06:28:00,
2013-06-14 02:34:00,52.6,52.8,29.59,North,0,0.0,5.0,100,-99.99,,,-99.99,PWS SA v1.10,2013-06-14 06:34:00,
2013-06-14 02:40:00,52.7,52.9,29.59,ENE,70,1.7,5.0,100,-99.99,,,-99.99,PWS SA v1.10,2013-06-14 06:40:00,
2013-06-14 02:46:00,52.8,52.9,29.59,East,79,1.7,6.0,100,-99.99,,,-99.99,PWS SA v1.10,2013-06-14 06:46:00,
2013-06-14 02:52:00,52.8,53.0,29.60,North,0,0.0,6.0,100,-99.99,,,-99.99,PWS SA v1.10,2013-06-14 06:52:00,
2013-06-14 02:58:00,52.8,53.0,29.60,NE,49,1.7,3.0,100,-99.99,,,-99.99,PWS SA v1.10,2013-06-14 06:58:00,
2013-06-14 03:04:00,52.7,52.8,29.60,North,0,0.0,5.0,100,-99.99,,,-99.99,PWS SA v1.10,2013-06-14 07:04:00,
2013-06-14 03:10:00,52.9,53.1,29.60,North,0,0.0,5.0,100,-99.99,,,-99.99,PWS SA v1.10,2013-06-14 07:10:00,
2013-06-14 03:16:00,53.0,53.2,29.61,North,0,0.0,5.0,100,-99.99,,,-99.99,PWS SA v1.10,2013-06-14 07:16:00,
2013-06-14 03:22:00,53.0,53.3,29.61,North,0,0.0,6.0,100,-99.99,,,-99.99,PWS SA v1.10,2013-06-14 07:22:00,
2013-06-14 03:28:00,53.0,53.3,29.60,NNW,343,1.7,6.0,100,-99.99,,,-99.99,PWS SA v1.10,2013-06-14 07:28:00,
2013-06-14 03:34:00,53.0,53.1,29.60,East,85,1.7,6.0,100,-99.99,,,-99.99,PWS SA v1.10,2013-06-14 07:34:00,
2013-06-14 03:40:00,53.2,53.6,29.60,North,0,0.0,3.0,100,-99.99,,,-99.99,PWS SA v1.10,2013-06-14 07:40:00,
2013-06-14 03:46:00,53.2,53.6,29.60,North,0,0.0,1.0,100,-99.99,,,-99.99,PWS SA v1.10,2013-06-14 07:46:00,
2013-06-14 03:52:00,53.2,53.6,29.60,North,0,0.0,1.0,100,-99.99,,,-99.99,PWS SA v1.10,2013-06-14 07:52:00,
2013-06-14 03:58:00,53.2,53.6,29.60,North,0,0.0,0.0,100,-99.99,,,-99.99,PWS SA v1.10,2013-06-14 07:58:00,
2013-06-14 04:04:00,53.4,53.6,29.60,North,0,0.0,1.0,100,-99.99,,,-99.99,PWS SA v1.10,2013-06-14 08:04:00,
2013-06-14 04:10:00,53.4,53.6,29.60,North,0,0.0,1.0,100,-99.99,,,-99.99,PWS SA v1.10,2013-06-14 08:10:00,
2013-06-14 04:16:00,53.4,53.7,29.61,North,11,1.7,3.0,100,-99.99,,,-99.99,PWS SA v1.10,2013-06-14 08:16:00,
2013-06-14 04:22:00,53.5,53.8,29.60,North,0,0.0,3.0,100,-99.99,,,-99.99,PWS SA v1.10,2013-06-14 08:22:00,
2013-06-14 04:28:00,53.5,54.0,29.60,North,0,0.0,1.0,100,-99.99,,,-99.99,PWS SA v1.10,2013-06-14 08:28:00,
2013-06-14 04:34:00,53.7,53.8,29.60,North,0,0.0,1.0,100,-99.99,,,-99.99,PWS SA v1.10,2013-06-14 08:34:00,
2013-06-14 04:40:00,53.7,53.8,29.61,North,0,0.0,1.0,100,-99.99,,,-99.99,PWS SA v1.10,2013-06-14 08:40:00,
2013-06-14 04:46:00,53.8,54.1,29.61,ENE,60,1.7,1.7,100,-99.99,,,-99.99,PWS SA v1.10,2013-06-14 08:46:00,
2013-06-14 04:52:00,53.8,54.2,29.60,NE,44,1.7,3.0,100,-99.99,,,-99.99,PWS SA v1.10,2013-06-14 08:52:00,
2013-06-14 04:58:00,53.9,54.2,29.61,North,0,0.0,3.0,100,-99.99,,,-99.99,PWS SA v1.10,2013-06-14 08:58:00,
2013-06-14 05:04:00,53.9,54.0,29.61,North,0,0.0,3.0,100,-99.99,,,-99.99,PWS SA v1.10,2013-06-14 09:04:00,
2013-06-14 05:10:00,53.9,54.0,29.62,North,0,0.0,1.0,100,-99.99,,,-99.99,PWS SA v1.10,2013-06-14 09:10:00,
2013-06-14 05:16:00,53.9,54.3,29.61,NNE,13,6.8,6.8,100,-99.99,,,-99.99,PWS SA v1.10,2013-06-14 09:16:00,
2013-06-14 05:22:00,53.9,54.3,29.61,North,0,0.0,6.0,100,-99.99,,,-99.99,PWS SA v1.10,2013-06-14 09:22:00,
2013-06-14 05:28:00,53.9,54.3,29.62,North,0,0.0,6.0,100,-99.99,,,-99.99,PWS SA v1.10,2013-06-14 09:28:00,
2013-06-14 05:34:00,53.9,54.2,29.62,North,0,0.0,1.0,100,-99.99,,,-99.99,PWS SA v1.10,2013-06-14 09:34:00,
2013-06-14 05:40:00,54.1,54.2,29.62,North,0,0.0,1.0,100,-99.99,,,-99.99,PWS SA v1.10,2013-06-14 09:40:00,
2013-06-14 05:46:00,53.9,54.3,29.62,North,0,0.0,0.0,100,-99.99,,,-99.99,PWS SA v1.10,2013-06-14 09:46:00,
2013-06-14 05:52:00,53.9,54.3,29.62,North,0,0.0,1.0,100,-99.99,,,-99.99,PWS SA v1.10,2013-06-14 09:52:00,
2013-06-14 05:58:00,53.9,54.2,29.63,North,0,0.0,1.0,100,-99.99,,,-99.99,PWS SA v1.10,2013-06-14 09:58:00,
2013-06-14 06:04:00,53.9,54.3,29.63,North,0,0.0,1.0,100,-99.99,,,-99.99,PWS SA v1.10,2013-06-14 10:04:00,
2013-06-14 06:10:00,53.8,54.0,29.63,East,81,1.7,1.7,100,-99.99,,,-99.99,PWS SA v1.10,2013-06-14 10:10:00,
2013-06-14 06:16:00,53.8,54.1,29.64,North,0,0.0,1.0,100,-99.99,,,-99.99,PWS SA v1.10,2013-06-14 10:16:00,
2013-06-14 06:22:00,53.7,53.9,29.64,East,95,1.7,3.0,100,-99.99,,,-99.99,PWS SA v1.10,2013-06-14 10:22:00,
2013-06-14 06:28:00,53.8,54.2,29.64,NE,34,3.4,3.4,100,-99.99,,,-99.99,PWS SA v1.10,2013-06-14 10:28:00,
2013-06-14 06:34:00,53.8,54.0,29.63,North,0,0.0,3.0,100,-99.99,,,-99.99,PWS SA v1.10,2013-06-14 10:34:00,
2013-06-14 06:40:00,53.8,54.0,29.64,North,0,0.0,3.0,100,-99.99,,,-99.99,PWS SA v1.10,2013-06-14 10:40:00,
2013-06-14 06:46:00,53.8,53.9,29.64,ENE,63,1.7,1.7,100,-99.99,,,-99.99,PWS SA v1.10,2013-06-14 10:46:00,
2013-06-14 06:52:00,53.8,54.2,29.64,ESE,104,3.4,3.4,100,-99.99,,,-99.99,PWS SA v1.10,2013-06-14 10:52:00,
2013-06-14 06:58:00,53.8,54.0,29.64,North,0,0.0,3.0,100,-99.99,,,-99.99,PWS SA v1.10,2013-06-14 10:58:00,
2013-06-14 07:04:00,53.8,54.2,29.64,North,0,0.0,3.0,100,-99.99,,,-99.99,PWS SA v1.10,2013-06-14 11:04:00,
2013-06-14 07:10:00,53.7,54.0,29.65,North,0,0.0,1.0,100,-99.99,,,-99.99,PWS SA v1.10,2013-06-14 11:10:00,
2013-06-14 07:16:00,53.8,54.3,29.65,North,0,0.0,1.0,100,-99.99,,,-99.99,PWS SA v1.10,2013-06-14 11:16:00,
2013-06-14 07:22:00,53.8,54.2,29.66,North,0,0.0,1.0,100,-99.99,,,-99.99,PWS SA v1.10,2013-06-14 11:22:00,
2013-06-14 07:28:00,53.8,54.2,29.65,North,0,0.0,3.0,100,-99.99,,,-99.99,PWS SA v1.10,2013-06-14 11:28:00,
2013-06-14 07:34:00,53.8,54.2,29.66,North,0,0.0,3.0,100,-99.99,,,-99.99,PWS SA v1.10,2013-06-14 11:34:00,
2013-06-14 07:40:00,53.9,54.0,29.66,North,0,0.0,1.0,100,-99.99,,,-99.99,PWS SA v1.10,2013-06-14 11:40:00,
2013-06-14 07:46:00,53.9,54.3,29.66,North,0,0.0,1.0,100,-99.99,,,-99.99,PWS SA v1.10,2013-06-14 11:46:00,
2013-06-14 07:52:00,53.8,54.2,29.67,North,0,0.0,1.0,100,-99.99,,,-99.99,PWS SA v1.10,2013-06-14 11:52:00,
2013-06-14 07:58:00,53.9,54.0,29.66,North,0,0.0,3.0,100,-99.99,,,-99.99,PWS SA v1.10,2013-06-14 11:58:00,
2013-06-14 08:04:00,53.9,54.0,29.67,North,0,0.0,3.0,100,-99.99,,,-99.99,PWS SA v1.10,2013-06-14 12:04:00,
2013-06-14 08:10:00,53.9,54.1,29.66,North,0,0.0,1.0,100,-99.99,,,-99.99,PWS SA v1.10,2013-06-14 12:10:00,
2013-06-14 08:16:00,53.8,54.2,29.66,NE,35,1.7,3.0,100,-99.99,,,-99.99,PWS SA v1.10,2013-06-14 12:16:00,
2013-06-14 08:22:00,53.7,54.0,29.66,ENE,61,1.7,3.0,100,-99.99,,,-99.99,PWS SA v1.10,2013-06-14 12:22:00,
2013-06-14 08:28:00,53.7,53.9,29.66,NNE,13,1.7,3.0,100,-99.99,,,-99.99,PWS SA v1.10,2013-06-14 12:28:00,
2013-06-14 08:34:00,54.0,54.1,29.67,North,0,0.0,3.0,100,-99.99,,,-99.99,PWS SA v1.10,2013-06-14 12:34:00,
2013-06-14 08:40:00,54.3,54.4,29.67,North,0,0.0,1.0,100,-99.99,,,-99.99,PWS SA v1.10,2013-06-14 12:40:00,
2013-06-14 08:46:00,54.1,54.3,29.67,NE,42,1.7,1.7,100,-99.99,,,-99.99,PWS SA v1.10,2013-06-14 12:46:00,
2013-06-14 08:52:00,54.3,54.4,29.67,North,0,0.0,1.0,100,-99.99,,,-99.99,PWS SA v1.10,2013-06-14 12:52:00,
2013-06-14 08:58:00,54.5,54.7,29.66,North,0,0.0,1.0,100,-99.99,,,-99.99,PWS SA v1.10,2013-06-14 12:58:00,
2013-06-14 09:04:00,54.6,54.9,29.66,North,0,0.0,0.0,100,-99.99,,,-99.99,PWS SA v1.10,2013-06-14 13:04:00,
2013-06-14 09:10:00,54.7,54.8,29.66,NE,55,3.4,3.4,100,-99.99,,,-99.99,PWS SA v1.10,2013-06-14 13:10:00,
2013-06-14 09:16:00,55.0,55.1,29.66,North,0,0.0,3.0,100,-99.99,,,-99.99,PWS SA v1.10,2013-06-14 13:16:00,
2013-06-14 09:22:00,55.2,55.3,29.66,North,0,0.0,3.0,100,-99.99,,,-99.99,PWS SA v1.10,2013-06-14 13:22:00,
2013-06-14 09:28:00,55.4,55.7,29.66,North,0,0.0,3.0,100,-99.99,,,-99.99,PWS SA v1.10,2013-06-14 13:28:00,
2013-06-14 09:34:00,56.1,56.2,29.67,NNE,26,1.7,3.0,100,-99.99,,,-99.99,PWS SA v1.10,2013-06-14 13:34:00,
2013-06-14 09:40:00,56.4,56.7,29.66,NNE,31,1.7,3.0,100,-99.99,,,-99.99,PWS SA v1.10,2013-06-14 13:40:00,
2013-06-14 09:46:00,56.5,56.5,29.66,North,0,0.0,3.0,99,-99.99,,,-99.99,PWS SA v1.10,2013-06-14 13:46:00,
2013-06-14 09:52:00,56.6,56.4,29.66,North,0,0.0,3.0,99,-99.99,,,-99.99,PWS SA v1.10,2013-06-14 13:52:00,
2013-06-14 09:58:00,56.8,56.8,29.66,North,0,0.0,0.0,99,-99.99,,,-99.99,PWS SA v1.10,2013-06-14 13:58:00,
2013-06-14 10:04:00,56.7,56.6,29.66,North,0,0.0,1.0,99,-99.99,,,-99.99,PWS SA v1.10,2013-06-14 14:04:00,
2013-06-14 10:10:00,57.0,56.9,29.65,North,0,0.0,1.0,99,-99.99,,,-99.99,PWS SA v1.10,2013-06-14 14:10:00,
2013-06-14 10:16:00,57.3,57.0,29.66,NE,43,1.7,1.7,99,-99.99,,,-99.99,PWS SA v1.10,2013-06-14 14:16:00,
2013-06-14 10:22:00,57.4,57.1,29.66,North,0,0.0,1.0,98,-99.99,,,-99.99,PWS SA v1.10,2013-06-14 14:22:00,
2013-06-14 10:28:00,57.7,56.8,29.66,North,352,1.7,3.0,96,-99.99,,,-99.99,PWS SA v1.10,2013-06-14 14:28:00,
2013-06-14 10:34:00,57.9,57.4,29.67,NW,324,1.7,5.0,97,-99.99,,,-99.99,PWS SA v1.10,2013-06-14 14:34:00,
2013-06-14 10:40:00,58.4,57.5,29.66,North,0,0.0,5.0,96,-99.99,,,-99.99,PWS SA v1.10,2013-06-14 14:40:00,
2013-06-14 10:46:00,58.7,57.5,29.67,NNE,31,3.4,3.4,96,-99.99,,,-99.99,PWS SA v1.10,2013-06-14 14:46:00,
2013-06-14 10:52:00,59.1,57.9,29.67,ESE,105,1.7,3.0,95,-99.99,,,-99.99,PWS SA v1.10,2013-06-14 14:52:00,
2013-06-14 10:58:00,59.5,58.2,29.67,North,0,0.0,5.0,95,-99.99,,,-99.99,PWS SA v1.10,2013-06-14 14:58:00,
2013-06-14 11:04:00,59.6,58.0,29.67,North,0,0.0,5.0,94,-99.99,,,-99.99,PWS SA v1.10,2013-06-14 15:04:00,
2013-06-14 11:10:00,59.4,56.8,29.68,North,0,0.0,1.0,91,-99.99,,,-99.99,PWS SA v1.10,2013-06-14 15:10:00,
2013-06-14 11:16:00,59.5,57.4,29.68,NNE,31,3.4,3.4,92,-99.99,,,-99.99,PWS SA v1.10,2013-06-14 15:16:00,
2013-06-14 11:22:00,59.6,58.1,29.68,North,0,0.0,3.0,94,-99.99,,,-99.99,PWS SA v1.10,2013-06-14 15:22:00,
2013-06-14 11:28:00,59.8,58.3,29.68,North,0,0.0,3.0,95,-99.99,,,-99.99,PWS SA v1.10,2013-06-14 15:28:00,
2013-06-14 11:34:00,59.6,58.3,29.69,North,0,0.0,0.0,94,-99.99,,,-99.99,PWS SA v1.10,2013-06-14 15:34:00,
2013-06-14 11:40:00,59.7,58.3,29.69,North,0,0.0,3.0,94,-99.99,,,-99.99,PWS SA v1.10,2013-06-14 15:40:00,
2013-06-14 11:46:00,60.0,58.3,29.69,North,0,0.0,3.0,94,-99.99,,,-99.99,PWS SA v1.10,2013-06-14 15:46:00,
2013-06-14 11:52:00,59.7,57.4,29.70,North,0,0.0,3.0,90,-99.99,,,-99.99,PWS SA v1.10,2013-06-14 15:52:00,
2013-06-14 11:58:00,60.0,57.7,29.69,North,0,0.0,3.0,91,-99.99,,,-99.99,PWS SA v1.10,2013-06-14 15:58:00,
2013-06-14 12:04:00,60.5,58.4,29.69,SSE,160,1.7,1.7,93,-99.99,,,-99.99,PWS SA v1.10,2013-06-14 16:04:00,
2013-06-14 12:10:00,61.3,58.4,29.68,ENE,65,1.7,1.7,90,-99.99,,,-99.99,PWS SA v1.10,2013-06-14 16:10:00,
2013-06-14 12:16:00,62.3,58.5,29.68,ENE,67,1.7,3.0,88,-99.99,,,-99.99,PWS SA v1.10,2013-06-14 16:16:00,
2013-06-14 12:22:00,62.8,57.7,29.68,SE,129,3.4,3.4,83,-99.99,,,-99.99,PWS SA v1.10,2013-06-14 16:22:00,
2013-06-14 12:28:00,62.9,57.3,29.69,ENE,63,1.7,5.0,81,-99.99,,,-99.99,PWS SA v1.10,2013-06-14 16:28:00,
2013-06-14 12:34:00,63.6,58.8,29.69,ENE,65,1.7,5.0,84,-99.99,,,-99.99,PWS SA v1.10,2013-06-14 16:34:00,
2013-06-14 12:40:00,64.4,58.8,29.68,ESE,110,1.7,3.0,81,-99.99,,,-99.99,PWS SA v1.10,2013-06-14 16:40:00,
2013-06-14 12:46:00,64.8,58.6,29.68,ESE,119,3.4,6.0,80,-99.99,,,-99.99,PWS SA v1.10,2013-06-14 16:46:00,
2013-06-14 12:52:00,64.6,56.8,29.69,NE,48,1.7,6.0,75,-99.99,,,-99.99,PWS SA v1.10,2013-06-14 16:52:00,
2013-06-14 12:58:00,64.9,56.4,29.68,North,0,0.0,5.0,73,-99.99,,,-99.99,PWS SA v1.10,2013-06-14 16:58:00,
2013-06-14 13:04:00,65.9,57.7,29.68,North,0,0.0,5.0,75,-99.99,,,-99.99,PWS SA v1.10,2013-06-14 17:04:00,
2013-06-14 13:10:00,65.6,57.0,29.68,North,0,0.0,5.0,73,-99.99,,,-99.99,PWS SA v1.10,2013-06-14 17:10:00,
2013-06-14 13:16:00,66.7,59.8,29.68,North,0,0.0,3.0,78,-99.99,,,-99.99,PWS SA v1.10,2013-06-14 17:16:00,
2013-06-14 13:22:00,67.6,59.5,29.68,North,0,0.0,3.0,75,-99.99,,,-99.99,PWS SA v1.10,2013-06-14 17:22:00,
2013-06-14 13:28:00,66.9,56.5,29.68,North,0,0.0,3.0,68,-99.99,,,-99.99,PWS SA v1.10,2013-06-14 17:28:00,
2013-06-14 13:34:00,66.7,59.4,29.68,North,0,0.0,1.0,76,-99.99,,,-99.99,PWS SA v1.10,2013-06-14 17:34:00,
2013-06-14 13:40:00,66.6,57.9,29.68,North,0,0.0,1.0,73,-99.99,,,-99.99,PWS SA v1.10,2013-06-14 17:40:00,
2013-06-14 13:46:00,68.5,60.6,29.69,North,0,0.0,1.0,76,-99.99,,,-99.99,PWS SA v1.10,2013-06-14 17:46:00,
2013-06-14 13:52:00,69.3,60.8,29.68,North,0,0.0,1.0,74,-99.99,,,-99.99,PWS SA v1.10,2013-06-14 17:52:00,
2013-06-14 13:58:00,69.4,60.5,29.68,North,0,0.0,1.0,73,-99.99,,,-99.99,PWS SA v1.10,2013-06-14 17:58:00,
2013-06-14 14:04:00,69.2,58.0,29.68,North,0,0.0,1.0,67,-99.99,,,-99.99,PWS SA v1.10,2013-06-14 18:04:00,
2013-06-14 14:10:00,69.1,59.1,29.68,North,0,0.0,1.0,69,-99.99,,,-99.99,PWS SA v1.10,2013-06-14 18:10:00,
2013-06-14 14:16:00,68.8,59.6,29.67,North,0,0.0,0.0,72,-99.99,,,-99.99,PWS SA v1.10,2013-06-14 18:16:00,
2013-06-14 14:22:00,68.1,58.1,29.68,SW,217,1.7,1.7,70,-99.99,,,-99.99,PWS SA v1.10,2013-06-14 18:22:00,
2013-06-14 14:28:00,68.7,59.3,29.67,North,0,0.0,1.0,72,-99.99,,,-99.99,PWS SA v1.10,2013-06-14 18:28:00,
2013-06-14 14:34:00,68.2,58.2,29.68,NNE,24,1.7,1.7,70,-99.99,,,-99.99,PWS SA v1.10,2013-06-14 18:34:00,
2013-06-14 14:40:00,70.1,59.2,29.68,ESE,104,1.7,1.7,69,-99.99,,,-99.99,PWS SA v1.10,2013-06-14 18:40:00,
2013-06-14 14:46:00,70.8,58.6,29.67,North,0,0.0,1.0,65,-99.99,,,-99.99,PWS SA v1.10,2013-06-14 18:46:00,
2013-06-14 14:52:00,72.3,60.6,29.67,ESE,121,1.7,1.7,67,-99.99,,,-99.99,PWS SA v1.10,2013-06-14 18:52:00,
2013-06-14 14:58:00,72.2,61.0,29.67,North,0,0.0,5.0,68,-99.99,,,-99.99,PWS SA v1.10,2013-06-14 18:58:00,
2013-06-14 15:04:00,71.9,58.7,29.67,North,8,1.7,5.0,63,-99.99,,,-99.99,PWS SA v1.10,2013-06-14 19:04:00,
2013-06-14 15:10:00,72.8,59.9,29.67,North,0,0.0,5.0,64,-99.99,,,-99.99,PWS SA v1.10,2013-06-14 19:10:00,
2013-06-14 15:16:00,72.5,59.0,29.67,North,0,0.0,5.0,62,-99.99,,,-99.99,PWS SA v1.10,2013-06-14 19:16:00,
2013-06-14 15:22:00,71.8,58.1,29.67,North,0,0.0,3.0,61,-99.99,,,-99.99,PWS SA v1.10,2013-06-14 19:22:00,
2013-06-14 15:28:00,69.8,58.1,29.66,North,0,0.0,3.0,65,-99.99,,,-99.99,PWS SA v1.10,2013-06-14 19:28:00,
2013-06-14 15:34:00,69.6,57.4,29.67,North,0,0.0,3.0,64,-99.99,,,-99.99,PWS SA v1.10,2013-06-14 19:34:00,
2013-06-14 15:40:00,69.3,59.2,29.66,North,0,0.0,0.0,70,-99.99,,,-99.99,PWS SA v1.10,2013-06-14 19:40:00,
2013-06-14 15:46:00,69.1,58.5,29.66,North,0,0.0,0.0,69,-99.99,,,-99.99,PWS SA v1.10,2013-06-14 19:46:00,
2013-06-14 15:52:00,68.9,58.4,29.66,North,0,0.0,0.0,69,-99.99,,,-99.99,PWS SA v1.10,2013-06-14 19:52:00,
2013-06-14 15:58:00,68.8,57.6,29.66,North,0,0.0,1.0,67,-99.99,,,-99.99,PWS SA v1.10,2013-06-14 19:58:00,
2013-06-14 16:04:00,68.9,58.5,29.66,North,0,0.0,1.0,69,-99.99,,,-99.99,PWS SA v1.10,2013-06-14 20:04:00,
2013-06-14 16:10:00,68.7,58.7,29.66,North,0,0.0,1.0,70,-99.99,,,-99.99,PWS SA v1.10,2013-06-14 20:10:00,
2013-06-14 16:16:00,69.0,58.5,29.66,North,0,0.0,0.0,69,-99.99,,,-99.99,PWS SA v1.10,2013-06-14 20:16:00,
2013-06-14 16:22:00,69.3,57.9,29.65,North,357,1.7,1.7,67,-99.99,,,-99.99,PWS SA v1.10,2013-06-14 20:22:00,
2013-06-14 16:28:00,69.9,59.5,29.65,North,0,0.0,1.0,70,-99.99,,,-99.99,PWS SA v1.10,2013-06-14 20:28:00,
2013-06-14 16:34:00,70.1,58.9,29.65,North,0,0.0,1.0,68,-99.99,,,-99.99,PWS SA v1.10,2013-06-14 20:34:00,
2013-06-14 16:40:00,70.0,59.6,29.65,West,270,1.7,1.7,69,-99.99,,,-99.99,PWS SA v1.10,2013-06-14 20:40:00,
2013-06-14 16:46:00,69.6,58.7,29.65,North,0,0.0,1.0,67,-99.99,,,-99.99,PWS SA v1.10,2013-06-14 20:46:00,
2013-06-14 16:52:00,69.8,58.9,29.64,North,0,0.0,1.0,68,-99.99,,,-99.99,PWS SA v1.10,2013-06-14 20:52:00,
2013-06-14 16:58:00,69.7,60.0,29.65,North,0,0.0,0.0,71,-99.99,,,-99.99,PWS SA v1.10,2013-06-14 20:58:00,
2013-06-14 17:04:00,69.7,58.8,29.65,North,0,0.0,0.0,68,-99.99,,,-99.99,PWS SA v1.10,2013-06-14 21:04:00,
2013-06-14 17:10:00,70.2,59.1,29.65,North,0,0.0,0.0,68,-99.99,,,-99.99,PWS SA v1.10,2013-06-14 21:10:00,
2013-06-14 17:16:00,70.2,58.8,29.65,North,0,0.0,0.0,67,-99.99,,,-99.99,PWS SA v1.10,2013-06-14 21:16:00,
2013-06-14 17:22:00,70.4,58.8,29.65,North,0,0.0,0.0,66,-99.99,,,-99.99,PWS SA v1.10,2013-06-14 21:22:00,
2013-06-14 17:28:00,70.8,58.7,29.65,North,0,0.0,0.0,65,-99.99,,,-99.99,PWS SA v1.10,2013-06-14 21:28:00,
2013-06-14 17:34:00,70.9,59.5,29.66,North,0,0.0,0.0,67,-99.99,,,-99.99,PWS SA v1.10,2013-06-14 21:34:00,
2013-06-14 17:40:00,71.4,59.5,29.65,North,0,0.0,0.0,66,-99.99,,,-99.99,PWS SA v1.10,2013-06-14 21:40:00,
2013-06-14 17:46:00,71.7,59.0,29.65,North,0,0.0,0.0,65,-99.99,,,-99.99,PWS SA v1.10,2013-06-14 21:46:00,
2013-06-14 17:52:00,71.2,59.2,29.65,North,0,0.0,0.0,65,-99.99,,,-99.99,PWS SA v1.10,2013-06-14 21:52:00,
2013-06-14 17:58:00,70.8,60.2,29.66,North,0,0.0,0.0,68,-99.99,,,-99.99,PWS SA v1.10,2013-06-14 21:58:00,
2013-06-14 18:04:00,70.8,60.1,29.65,North,0,0.0,3.0,68,-99.99,,,-99.99,PWS SA v1.10,2013-06-14 22:04:00,
2013-06-14 18:10:00,71.3,61.0,29.65,North,0,0.0,3.0,70,-99.99,,,-99.99,PWS SA v1.10,2013-06-14 22:10:00,
2013-06-14 18:16:00,71.2,61.6,29.65,North,0,0.0,3.0,71,-99.99,,,-99.99,PWS SA v1.10,2013-06-14 22:16:00,
2013-06-14 18:22:00,71.3,58.2,29.66,North,0,0.0,0.0,63,-99.99,,,-99.99,PWS SA v1.10,2013-06-14 22:22:00,
2013-06-14 18:28:00,70.7,58.4,29.66,North,0,0.0,0.0,64,-99.99,,,-99.99,PWS SA v1.10,2013-06-14 22:28:00,
2013-06-14 18:34:00,70.0,59.2,29.66,North,0,0.0,0.0,67,-99.99,,,-99.99,PWS SA v1.10,2013-06-14 22:34:00,
2013-06-14 18:40:00,69.3,60.6,29.66,North,0,0.0,0.0,72,-99.99,,,-99.99,PWS SA v1.10,2013-06-14 22:40:00,
2013-06-14 18:46:00,68.7,60.8,29.65,North,0,0.0,0.0,75,-99.99,,,-99.99,PWS SA v1.10,2013-06-14 22:46:00,
2013-06-14 18:52:00,68.2,61.8,29.66,North,0,0.0,0.0,79,-99.99,,,-99.99,PWS SA v1.10,2013-06-14 22:52:00,
2013-06-14 18:58:00,67.9,61.8,29.66,North,0,0.0,0.0,80,-99.99,,,-99.99,PWS SA v1.10,2013-06-14 22:58:00,
2013-06-14 19:04:00,67.6,61.6,29.66,North,0,0.0,0.0,80,-99.99,,,-99.99,PWS SA v1.10,2013-06-14 23:04:00,
2013-06-14 19:10:00,67.3,61.9,29.66,North,0,0.0,0.0,82,-99.99,,,-99.99,PWS SA v1.10,2013-06-14 23:10:00,
2013-06-14 19:16:00,67.0,61.8,29.66,North,0,0.0,0.0,83,-99.99,,,-99.99,PWS SA v1.10,2013-06-14 23:16:00,
2013-06-14 19:22:00,66.7,62.3,29.66,North,0,0.0,0.0,85,-99.99,,,-99.99,PWS SA v1.10,2013-06-14 23:22:00,
2013-06-14 19:28:00,66.3,62.5,29.65,North,0,0.0,0.0,87,-99.99,,,-99.99,PWS SA v1.10,2013-06-14 23:28:00,
2013-06-14 19:34:00,66.0,62.4,29.65,North,0,0.0,0.0,87,-99.99,,,-99.99,PWS SA v1.10,2013-06-14 23:34:00,
2013-06-14 19:40:00,65.8,62.6,29.65,North,0,0.0,0.0,88,-99.99,,,-99.99,PWS SA v1.10,2013-06-14 23:40:00,
2013-06-14 19:46:00,65.3,62.2,29.66,North,0,0.0,0.0,88,-99.99,,,-99.99,PWS SA v1.10,2013-06-14 23:46:00,
2013-06-14 19:52:00,65.1,61.9,29.66,North,0,0.0,0.0,88,-99.99,,,-99.99,PWS SA v1.10,2013-06-14 23:52:00,
2013-06-14 19:58:00,64.8,61.9,29.66,North,0,0.0,0.0,89,-99.99,,,-99.99,PWS SA v1.10,2013-06-14 23:58:00,
2013-06-14 20:04:00,64.6,61.7,29.66,North,0,0.0,0.0,89,-99.99,,,-99.99,PWS SA v1.10,2013-06-15 00:04:00,
2013-06-14 20:10:00,64.3,61.3,29.67,North,0,0.0,0.0,89,-99.99,,,-99.99,PWS SA v1.10,2013-06-15 00:10:00,
2013-06-14 20:16:00,64.2,61.6,29.67,North,0,0.0,0.0,90,-99.99,,,-99.99,PWS SA v1.10,2013-06-15 00:16:00,
2013-06-14 20:22:00,64.0,61.4,29.67,North,0,0.0,0.0,90,-99.99,,,-99.99,PWS SA v1.10,2013-06-15 00:22:00,
2013-06-14 20:28:00,64.0,61.4,29.67,North,0,0.0,0.0,90,-99.99,,,-99.99,PWS SA v1.10,2013-06-15 00:28:00,
2013-06-14 20:34:00,64.0,61.3,29.67,North,0,0.0,0.0,90,-99.99,,,-99.99,PWS SA v1.10,2013-06-15 00:34:00,
2013-06-14 20:40:00,63.7,61.4,29.67,North,0,0.0,0.0,91,-99.99,,,-99.99,PWS SA v1.10,2013-06-15 00:40:00,
2013-06-14 20:46:00,63.7,61.0,29.68,North,0,0.0,0.0,90,-99.99,,,-99.99,PWS SA v1.10,2013-06-15 00:46:00,
2013-06-14 20:52:00,63.7,61.1,29.67,North,0,0.0,0.0,90,-99.99,,,-99.99,PWS SA v1.10,2013-06-15 00:52:00,
2013-06-14 20:58:00,63.5,61.0,29.68,North,0,0.0,0.0,91,-99.99,,,-99.99,PWS SA v1.10,2013-06-15 00:58:00,
2013-06-14 21:04:00,63.2,61.0,29.68,North,0,0.0,0.0,91,-99.99,,,-99.99,PWS SA v1.10,2013-06-15 01:04:00,
2013-06-14 21:10:00,63.0,60.3,29.69,North,0,0.0,0.0,90,-99.99,,,-99.99,PWS SA v1.10,2013-06-15 01:10:00,
2013-06-14 21:16:00,63.0,60.0,29.69,North,0,0.0,0.0,89,-99.99,,,-99.99,PWS SA v1.10,2013-06-15 01:16:00,
2013-06-14 21:22:00,62.9,59.4,29.69,North,0,0.0,0.0,88,-99.99,,,-99.99,PWS SA v1.10,2013-06-15 01:22:00,
2013-06-14 21:28:00,62.7,59.6,29.68,North,0,0.0,0.0,89,-99.99,,,-99.99,PWS SA v1.10,2013-06-15 01:28:00,
2013-06-14 21:34:00,62.7,58.6,29.69,North,0,0.0,0.0,86,-99.99,,,-99.99,PWS SA v1.10,2013-06-15 01:34:00,
2013-06-14 21:40:00,62.8,59.0,29.68,North,0,0.0,0.0,87,-99.99,,,-99.99,PWS SA v1.10,2013-06-15 01:40:00,
2013-06-14 21:46:00,62.8,58.9,29.68,North,0,0.0,0.0,86,-99.99,,,-99.99,PWS SA v1.10,2013-06-15 01:46:00,
2013-06-14 21:52:00,62.9,58.4,29.69,North,0,0.0,0.0,85,-99.99,,,-99.99,PWS SA v1.10,2013-06-15 01:52:00,
2013-06-14 21:58:00,62.8,59.0,29.68,North,0,0.0,0.0,86,-99.99,,,-99.99,PWS SA v1.10,2013-06-15 01:58:00,
2013-06-14 22:04:00,62.6,58.6,29.69,North,0,0.0,0.0,85,-99.99,,,-99.99,PWS SA v1.10,2013-06-15 02:04:00,
2013-06-14 22:10:00,62.4,58.4,29.70,North,0,0.0,0.0,86,-99.99,,,-99.99,PWS SA v1.10,2013-06-15 02:10:00,
2013-06-14 22:16:00,62.2,58.6,29.69,North,0,0.0,0.0,87,-99.99,,,-99.99,PWS SA v1.10,2013-06-15 02:16:00,
2013-06-14 22:22:00,62.0,58.0,29.70,North,0,0.0,3.0,85,-99.99,,,-99.99,PWS SA v1.10,2013-06-15 02:22:00,
2013-06-14 22:28:00,62.0,58.0,29.70,North,0,0.0,3.0,86,-99.99,,,-99.99,PWS SA v1.10,2013-06-15 02:28:00,
2013-06-14 22:34:00,61.9,58.0,29.69,North,0,0.0,3.0,86,-99.99,,,-99.99,PWS SA v1.10,2013-06-15 02:34:00,
2013-06-14 22:40:00,62.0,57.8,29.69,North,0,0.0,0.0,85,-99.99,,,-99.99,PWS SA v1.10,2013-06-15 02:40:00,
2013-06-14 22:46:00,62.0,57.4,29.70,North,0,0.0,0.0,84,-99.99,,,-99.99,PWS SA v1.10,2013-06-15 02:46:00,
2013-06-14 22:52:00,62.2,57.3,29.70,North,0,0.0,1.0,84,-99.99,,,-99.99,PWS SA v1.10,2013-06-15 02:52:00,
2013-06-14 22:58:00,62.3,57.1,29.69,North,0,0.0,1.0,83,-99.99,,,-99.99,PWS SA v1.10,2013-06-15 02:58:00,
2013-06-14 23:04:00,62.4,56.7,29.70,North,0,0.0,1.0,81,-99.99,,,-99.99,PWS SA v1.10,2013-06-15 03:04:00,
2013-06-14 23:10:00,62.3,57.0,29.70,North,0,0.0,1.0,82,-99.99,,,-99.99,PWS SA v1.10,2013-06-15 03:10:00,
2013-06-14 23:16:00,62.5,56.9,29.70,North,0,0.0,1.0,81,-99.99,,,-99.99,PWS SA v1.10,2013-06-15 03:16:00,
2013-06-14 23:22:00,62.5,56.7,29.70,NNW,348,1.7,1.7,81,-99.99,,,-99.99,PWS SA v1.10,2013-06-15 03:22:00,
2013-06-14 23:28:00,62.7,56.6,29.71,North,0,0.0,1.0,80,-99.99,,,-99.99,PWS SA v1.10,2013-06-15 03:28:00,
2013-06-14 23:34:00,62.5,56.8,29.71,North,0,0.0,1.0,81,-99.99,,,-99.99,PWS SA v1.10,2013-06-15 03:34:00,
2013-06-14 23:40:00,62.7,56.4,29.70,North,0,0.0,0.0,79,-99.99,,,-99.99,PWS SA v1.10,2013-06-15 03:40:00,
2013-06-14 23:46:00,62.6,56.2,29.71,North,0,0.0,0.0,79,-99.99,,,-99.99,PWS SA v1.10,2013-06-15 03:46:00,
2013-06-14 23:52:00,62.4,56.5,29.71,North,0,0.0,0.0,80,-99.99,,,-99.99,PWS SA v1.10,2013-06-15 03:52:00,
2013-06-14 23:58:00,62.4,56.1,29.71,North,0,0.0,3.0,79,-99.99,,,-99.99,PWS SA v1.10,2013-06-15 03:58:00,